Regional Weather Roundup
Issued by NWS

Home | Current Version | Previous Version | Text Only | Print | Product List | Glossary On
Versions: 1 2 3 4 5 6 7 8 9 10 11 12 13 14 15 16 17 18 19 20 21 22 23 24 25 26 27 28 29 30 31 32 33 34 35 36 37 38 39 40 41 42 43 44 45 46 47 48 49 50
000
ASUS43 KMPX 180510
RWRMN
WEATHER ROUNDUP FOR MINNESOTA
NATIONAL WEATHER SERVICE TWIN CITIES/CHANHASSEN MN
1200 AM CDT WED OCT 18 2017


NOTE: "FAIR" INDICATES FEW OR NO CLOUDS BELOW 12,000 FEET WITH NO
SIGNIFICANT WEATHER AND/OR OBSTRUCTIONS TO VISIBILITY. N/A MEANS
CURRENT SKY AND/OR WEATHER CONDITIONS ARE NOT AVAILABLE.

MNZ060>063-068>070-180600-
   Twin Cities Metro

CITY           SKY/WX    TMP DP  RH WIND       PRES   REMARKS
TWIN CITIES    CLEAR     62  45  53 SW8       29.90S
ST PAUL        CLEAR     54  46  74 SE7       29.92S
CRYSTAL        CLEAR     60  42  51 S10       29.88S
BLAINE         CLEAR     61  45  55 S8        29.88F
LAKEVILLE      CLEAR     55  45  67 CALM      29.91S
EDEN PRAIRIE   CLEAR     59  45  59 SW12      29.89S
SOUTH ST PAUL  CLEAR     57  44  60 S5        29.91S
LAKE ELMO      FAIR      54  45  71 S7        29.92S
$$
MNZ001>005-007-008-013>017-022>024-027-028-180600-
   Northwest Minnesota

CITY           SKY/WX    TMP DP  RH WIND       PRES   REMARKS
BEMIDJI        CLEAR     57  40  51 S9        29.71F
HALLOCK        CLEAR     54  36  50 S14       29.53F
ROSEAU         CLEAR     55  43  62 S14       29.56F
WARROAD        CLEAR     61  43  51 S10G17    29.57F
THIEF RVR FALL CLEAR     61  39  44 S16G23    29.63F
CROOKSTON      CLEAR     57  39  51 S16       29.62F
FOSSTON        CLEAR     57  37  47 S17       29.68F
DETROIT LAKES  CLEAR     61  41  48 S9        29.73F
MOORHEAD       CLEAR     52  43  71 S9        29.69F
PARK RAPIDS    CLEAR     52  40  63 S9        29.75F
MAHNOMEN       FAIR      56  41  58 S14       29.69F
$$
MNZ006-009>011-018-025>026-180600-
   North Central Minnesota

CITY           SKY/WX    TMP DP  RH WIND       PRES   REMARKS
BAUDETTE       CLEAR     57  41  55 S12       29.62F
FLAG ISLAND    CLEAR     52  46  82 S9        29.56F
INTL FALLS     CLEAR     58  37  45 S9        29.67F
WASKISH        CLEAR     61  41  48 S7        29.67F
BIG FORK       CLEAR     57  39  51 S9        29.72F
LONGVILLE      CLEAR     57  37  47 S7        29.77F
GRAND RAPIDS   CLEAR     55  40  56 S10       29.78F
CRANE LAKE     CLEAR     54  37  54 S5        29.74F
ORR            CLEAR     54  36  50 S7        29.72F
COOK           CLEAR     57  39  51 S9        29.76F
WALKER         FAIR      60  39  46 S13G18    29.73F
$$
MNZ012-019>021-037-180600-
   Northeast Minnesota

CITY           SKY/WX    TMP DP  RH WIND       PRES   REMARKS
DULUTH         CLEAR     56  41  57 SW12      29.83F
ELY            CLEAR     57  37  47 S9        29.79F
HIBBING        CLEAR     52  38  58 S5        29.78F
EVELETH        CLEAR     55  32  41 S10       29.80F
DULUTH HARBOR  CLEAR     52  45  76 CALM      29.84S
TWO HARBORS    CLEAR     43  37  81 CALM      29.82F
GRAND MARAIS     N/A     44  42  93 VRB3      29.83F
G MARAIS ARPRT CLOUDY    48  37  66 S5        29.85F
$$
MNZ029>031-032-039>041-046>048-054>057-064-180600-
   West Central Minnesota

CITY           SKY/WX    TMP DP  RH WIND       PRES   REMARKS
FERGUS FALLS   CLEAR     54  43  66 S9        29.76S
WHEATON        CLEAR     57  39  51 S13       29.76F
MORRIS         CLEAR     52  41  66 S10       29.78F
ALEXANDRIA     CLEAR     59  40  49 SW13      29.81F
ELBOW LAKE     FAIR      53  41  63 S10       29.77F
WADENA         CLEAR     54  39  58 S7        29.76F
GLENWOOD       CLEAR     57  41  54 S13       29.82F
APPLETON       CLEAR     57  39  51 S8        29.80F
BENSON         CLEAR     54  41  62 S10       29.83F
ORTONVILLE     CLEAR     54  39  58 N7        29.78F
MADISON        CLEAR     59  43  55 S10       29.81F
WILLMAR        FAIR      55  43  62 S3        29.86F
$$
MNZ033>034-036-042>043-049>051-058-059-180600-
   Central Minnesota

CITY           SKY/WX    TMP DP  RH WIND       PRES   REMARKS
ST CLOUD       CLEAR     50  40  68 S7        29.85F
SAUK CENTRE    FAIR      54  40  61 S10       29.82F
PAYNESVILLE    CLEAR     58  41  52 S10       29.85F
AITKIN         CLEAR     54  39  58 S8        29.79F
PINE RIVER     CLEAR     50  37  62 S5        29.81F
BRAINERD       CLEAR     58  38  47 S12       29.80F
STAPLES        CLEAR     54  37  54 S9        29.78F
LONG PRAIRIE   FAIR      55  39  54 S9        29.82F
LITTLE FALLS   CLEAR     52  32  46 SE6       29.83F
LITCHFIELD     CLEAR     57  41  54 S3        29.87F
BUFFALO        CLEAR     57  43  59 S6        29.89S
MAPLE LAKE     CLEAR     55  42  61 S5        29.88S
HUTCHINSON     CLEAR     53  42  66 S5        29.90S
$$
MNZ037-044-045-052-053-180600-
   East Central Minnesota

CITY           SKY/WX    TMP DP  RH WIND       PRES   REMARKS
PRINCETON      CLEAR     57  43  58 S6        29.86S
MORA           CLEAR     50  39  66 S3        29.87S
CAMBRIDGE      CLEAR     59  45  58 S8        29.87S
RUSH CITY      MOCLDY    54  43  64 S7        29.87S
MOOSE LAKE     CLEAR     52  41  66 S6        29.82F
HINCKLEY       FAIR      52  43  71 S5        29.85F
CLOQUET        CLEAR     54  39  58 S3        29.83F
MCGREGOR       CLEAR     52  41  66 S5        29.81F
$$
MNZ071>073-080-081-089-090-097-098-180600-
   Southwest Minnesota

CITY           SKY/WX    TMP DP  RH WIND       PRES   REMARKS
MONTEVIDEO     CLEAR     55  41  58 SW10      29.83F
GRANITE FALLS  CLEAR     53  44  71 S9        29.86F
CANBY          CLEAR     64  42  45 SW13G18   29.83F
MARSHALL       CLEAR     60  44  55 SW18G25   29.85F
REDWOOD FALLS  CLEAR     54  41  61 S12       29.87F
OLIVIA         CLEAR     55  41  58 S8        29.86F
PIPESTONE      CLEAR    N/A N/A N/A S8        29.90F
WORTHINGTON    CLEAR     56  45  66 S12G20    29.93F
JACKSON        CLEAR     54  45  71 S9        29.95S
TRACY          CLEAR     60  46  61 SW21      29.88F
SLAYTON        PTCLDY    56  42  59 S13G20    29.92S
$$
MNZ065>067-074>077-082>085-091>093-180600-
   South Central Minnesota

CITY           SKY/WX    TMP DP  RH WIND       PRES   REMARKS
MANKATO        CLEAR     52  44  74 S6        29.93S
NEW ULM          N/A     55  43  62 S13       29.90S
ST JAMES       CLEAR     54  45  71 S8        29.93F
FAIRMONT       CLEAR     55  45  68 S10       29.94
GLENCOE        CLEAR     57  46  66 S7        29.89S
FARIBAULT      CLEAR     54  45  71 S5        29.94S
OWATONNA       CLEAR     55  45  67 S12       29.94F
WASECA         CLEAR     54  43  66 S8        29.95F
ALBERT LEA     CLEAR     57  46  67 S7        29.97S
$$
MNZ078>079-086>088-094>096-180600-
   Southeast Minnesota

CITY           SKY/WX    TMP DP  RH WIND       PRES   REMARKS
ROCHESTER      CLEAR     53  45  74 S13       29.98F
RED WING       CLEAR     59  41  51 CALM      29.92F
STANTON        CLEAR     58  45  61 S9        29.92R
DODGE CENTER   CLEAR     55  43  62 S12       29.96F
WINONA         CLEAR     59  43  55 SW7       29.97S
AUSTIN         CLEAR     50  43  76 S5        29.98S
PRESTON        CLEAR     55  43  65 S12       30.00F
$$
ABBREVIATIONS USED IN REMARKS
   TC - TEMPERATURES IN CELSIUS
  WCI - WIND CHILL INDEX
   HX - HEAT INDEX
  VSB - VISIBILITY
$$



USA.gov is the U.S. government's official web portal to all federal, state and local government web resources and services.